Klamath Falls, OR

6:13 AM PDT on May 30, 2017 (GMT -0700)
Klamath Falls International

Weather History for KLMT - April, 2014

Change the Weather History Date:

Wednesday, April 2, 2014

  Actual Average Record
Temperature  
Mean Temperature 39 °F 40 °F  
Max Temperature 54 °F 53 °F 76 °F (1992)
Min Temperature 23 °F 27 °F 14 °F (1963)
Degree Days  
Heating Degree Days 26 25  
Month to date heating degree days 59 50  
Since 1 July heating degree days 5556 5712  
Cooling Degree Days 0 0  
Month to date cooling degree days 0 0  
Year to date cooling degree days 0 0  
Moisture  
Dew Point 27 °F    
Average Humidity 69    
Maximum Humidity 96    
Minimum Humidity 35    
Precipitation  
Precipitation T in 0.03 in 0.20 in (1989)
Month to date precipitation T 0.06  
Year to date precipitation 4.59 5.10  
Sea Level Pressure  
Sea Level Pressure 29.97 in    
Wind  
Wind Speed 5 mph (West)    
Max Wind Speed 17 mph    
Max Gust Speed 20 mph    
Visibility 10 miles    
Events Snow    
T = Trace of Precipitation, MM = Missing Value Source: NWS Daily Summary

Daily Weather History Graph

Daily Weather History Graph

Search for Another Location

Airport or City:

Trip Planner

Search our weather history database for the weather conditions in past years. The results will help you decide how hot, cold, wet, or windy it might be!

Date:

Astronomy

Apr. 02, 2014 Rise Set
Actual Time 6:47 AM PDT 7:33 PM PDT
Civil Twilight 6:19 AM PDT 8:02 PM PDT
Nautical Twilight 5:45 AM PDT 8:35 PM PDT
Astronomical Twilight 5:11 AM PDT 9:10 PM PDT
Moon 8:32 AM PDT (4/2) 11:05 PM PDT (4/2)
Length of Visible Light 13h 42m
Length of Day
12h 46m
Waxing Crescent, 11% of the Moon is Illuminated
Apr 2
Waxing Crescent
Apr 7
First Quarter
Apr 15
Full
Apr 22
Last Quarter
Apr 28
New

Hourly Weather History & Observations

Time (PDT) Temp. Windchill Dew Point Humidity Pressure Visibility Wind Dir Wind Speed Gust Speed Precip Events Conditions
12:53 AM 33.1 °F 30.0 °F 32.0 °F 96% 29.86 in 7.0 mi WSW 3.5 mph - N/A   Overcast
1:53 AM 32.0 °F - 28.0 °F 85% 29.87 in 10.0 mi Calm Calm - N/A   Partly Cloudy
2:53 AM 30.0 °F - 27.0 °F 88% 29.88 in 10.0 mi Calm Calm - N/A   Overcast
3:53 AM 30.9 °F - 28.0 °F 89% 29.88 in 6.0 mi Calm Calm - 0.00 in Snow Light Snow
5:53 AM 26.1 °F - 24.1 °F 92% 29.93 in 10.0 mi Calm Calm - N/A   Clear
6:53 AM 24.1 °F 18.2 °F 21.9 °F 91% 29.96 in 10.0 mi SE 4.6 mph - N/A   Clear
7:53 AM 28.0 °F - 27.0 °F 96% 29.98 in 10.0 mi Calm Calm - N/A   Partly Cloudy
8:53 AM 34.0 °F - 30.9 °F 89% 29.98 in 10.0 mi Calm Calm - N/A   Partly Cloudy
9:53 AM 39.0 °F 36.8 °F 30.9 °F 73% 29.99 in 10.0 mi Variable 3.5 mph - N/A   Partly Cloudy
10:53 AM 39.9 °F 37.8 °F 30.9 °F 70% 30.00 in 10.0 mi West 3.5 mph - N/A   Mostly Cloudy
11:02 AM 41.0 °F - 30.0 °F 65% 29.99 in 10.0 mi Calm Calm - N/A   Scattered Clouds
11:53 AM 45.0 °F 41.2 °F 30.9 °F 58% 29.99 in 10.0 mi SSE 6.9 mph - N/A   Scattered Clouds
12:53 PM 46.9 °F - 30.9 °F 54% 29.98 in 10.0 mi SSW 6.9 mph - N/A   Scattered Clouds
1:53 PM 50.0 °F - 27.0 °F 41% 29.98 in 10.0 mi Calm Calm - N/A   Scattered Clouds
3:53 PM 52.0 °F - 28.9 °F 41% 29.96 in 10.0 mi West 11.5 mph - N/A   Partly Cloudy
4:53 PM 51.1 °F - 24.1 °F 35% 29.97 in 10.0 mi NW 12.7 mph - N/A   Clear
5:53 PM 51.1 °F - 25.0 °F 36% 29.98 in 10.0 mi NNW 13.8 mph - N/A   Clear
6:53 PM 48.9 °F - 27.0 °F 43% 30.00 in 10.0 mi NW 13.8 mph - N/A   Clear
7:53 PM 41.0 °F 38.0 °F 25.0 °F 53% 30.01 in 10.0 mi NW 4.6 mph - N/A   Clear
8:53 PM 37.9 °F 34.4 °F 26.1 °F 62% 30.02 in 10.0 mi NNW 4.6 mph - N/A   Clear
9:53 PM 33.1 °F 28.7 °F 25.0 °F 72% 30.03 in 10.0 mi West 4.6 mph - N/A   Clear
10:53 PM 30.9 °F - 25.0 °F 79% 30.04 in 10.0 mi Calm Calm - N/A   Clear
11:53 PM 28.9 °F - 24.1 °F 82% 30.03 in 10.0 mi Calm Calm - N/A   Clear